Location: Unspecified
(0.0000°N, 0.0000°E)
Time: 12:41:34
(UTC+00:00)

ISS - Visible Passes

Search period start: 07 October 2022 00:00
Search period end: 17 October 2022 00:00
Orbit: 415 x 419 km, 51.6° (Epoch: 07 October)

Date Brightness Start Highest point End Pass type
(mag) Time Alt. Az. Time Alt. Az. Time Alt. Az.
09 Oct -2.4 18:41:40 10° N 18:44:09 22° NE 18:44:09 22° NE visible
10 Oct -1.6 19:29:54 10° WNW 19:32:41 24° SW 19:32:45 24° SW visible
11 Oct -3.3 18:41:09 10° NW 18:44:27 61° SW 18:47:45 10° SSE visible
13 Oct -0.5 18:43:01 10° W 18:44:28 12° SW 18:45:55 10° SSW visible
14 Oct -0.6 04:41:56 10° SSE 04:43:47 14° SE 04:45:38 10° E visible
16 Oct -3.6 04:40:21 10° SSW 04:43:40 72° SE 04:46:59 10° NE visible
